星链-2244 (STARLINK-2244 )

导读

STARLINK‑2244是美国SpaceX公司星链互联网星座中的一颗低轨通信卫星,于2021年5月15日发射入轨。它属于星链星座的批量部署卫星,运行在近地轨道,采用平板设计,配备氪工质霍尔推进器,搭载Ku/Ka波段通信载荷,通过星地链路为全球偏远地区提供高速低延迟宽带互联网服务,设计寿命约5‑7年,寿命末期会主动离轨坠入大气层烧毁。

基本信息
目录编号:
48588
目录名称:
STARLINK-2244
国际标识:
2021-041AM
轨道中心:
EARTH
卫星名称:
星链-2244
卫星全名:
星链-2244 (STARLINK-2244 )
卫星状态:
已陨落 最后检测时间 2025-01-05
发射日期:
2021-05-15 UTC
国别 :
美国 (US)
星等 :
--
该卫星已列入 空间交会检测服务 Space Conjunction Data Service (SCDS) ,当前飞行风险评估等级: 无高风险
轨道信息
数据来源 国际轨道数据
星历时间: 2025-01-05T20:50:00+0800
轨道信息已过期614天
半长轴: 6508.701km
偏心率: 0.0002384
轨道倾角: 53.017°
近地点辐角 119.524°
升交点赤经 236.479°
平近点角 342.686°
近地点: 129.014km
远地点: 132.118km
周期: 87.097分钟
每日圈数: 16.533369
详细信息
固有亮度:
5
最大亮度:
2.5
卫星平台:
Starlink V1.0
覆盖范围:
全球
运营商:
太空探索技术公司
运营商所在国:
美国
制造商(研发单位):
太空探索技术公司
制造商所在国:
美国
使用方式:
暂无
卫星简介
星链(Starlink)计划是由太空探索技术公司(SpaceX)提出的一个巨型低轨卫星互联网星座项目,计划在2019年至2024年间在太空搭建由约1.2万颗卫星组成的“星链”网络,其中1584颗将部署在地球上空550千米处的近地轨道,并从2020年开始工作。该卫星仍在工作。
与全量物体交会距离演化趋势
与全量物体交会风险概率演化趋势